TimeMDT,TemperatureF,Dew PointF,Humidity,Sea Level PressureIn,VisibilityMPH,Wind Direction,Wind SpeedMPH,Gust SpeedMPH,PrecipitationIn,Events,Conditions,WindDirDegrees,DateUTC
12:53 AM,57.0,35.1,44,29.86,10.0,SSW,10.4,-,N/A,,Clear,200,2013-08-20 06:53:00
1:53 AM,55.9,35.1,45,29.86,10.0,South,9.2,-,N/A,,Clear,190,2013-08-20 07:53:00
2:53 AM,54.0,35.1,49,29.86,10.0,South,5.8,-,N/A,,Clear,190,2013-08-20 08:53:00
3:53 AM,51.1,35.1,54,29.87,10.0,SE,6.9,-,N/A,,Clear,130,2013-08-20 09:53:00
4:53 AM,53.1,36.0,52,29.87,10.0,SE,9.2,-,N/A,,Clear,140,2013-08-20 10:53:00
5:53 AM,51.1,35.1,54,29.88,10.0,SE,8.1,-,N/A,,Clear,140,2013-08-20 11:53:00
6:53 AM,55.0,36.0,49,29.89,10.0,South,4.6,-,N/A,,Clear,180,2013-08-20 12:53:00
7:53 AM,63.0,37.9,40,29.89,10.0,SSE,5.8,-,N/A,,Clear,150,2013-08-20 13:53:00
8:53 AM,73.0,39.9,30,29.89,10.0,SSW,10.4,-,N/A,,Clear,210,2013-08-20 14:53:00
9:53 AM,75.9,37.9,25,29.89,10.0,WSW,4.6,-,N/A,,Clear,240,2013-08-20 15:53:00
10:53 AM,81.0,34.0,18,29.87,10.0,NW,4.6,-,N/A,,Clear,320,2013-08-20 16:53:00
11:53 AM,82.0,32.0,16,29.89,10.0,North,11.5,-,N/A,,Clear,360,2013-08-20 17:53:00
12:53 PM,84.9,33.1,16,29.86,10.0,Variable,4.6,-,N/A,,Clear,0,2013-08-20 18:53:00
1:53 PM,87.1,33.1,15,29.84,10.0,NW,15.0,21.9,N/A,,Clear,320,2013-08-20 19:53:00
2:53 PM,86.0,32.0,14,29.85,10.0,NW,15.0,21.9,N/A,,Clear,320,2013-08-20 20:53:00
3:53 PM,82.0,33.1,17,29.88,10.0,WNW,24.2,31.1,N/A,,Scattered Clouds,300,2013-08-20 21:53:00
4:49 PM,75.2,41.0,29,30.25,10.0,SSW,25.3,32.2,N/A,,Overcast,210,2013-08-20 22:49:00
4:53 PM,75.9,39.9,27,29.93,10.0,SSW,23.0,32.2,N/A,,Overcast,210,2013-08-20 22:53:00
5:53 PM,75.0,39.9,28,29.95,10.0,SSE,6.9,-,N/A,,Mostly Cloudy,150,2013-08-20 23:53:00
6:53 PM,73.0,42.1,33,29.95,10.0,NW,8.1,-,N/A,,Mostly Cloudy,320,2013-08-21 00:53:00
7:53 PM,70.0,42.1,36,29.93,10.0,NNW,4.6,-,N/A,,Scattered Clouds,330,2013-08-21 01:53:00
8:53 PM,69.1,42.1,38,29.90,10.0,North,4.6,-,N/A,,Overcast,360,2013-08-21 02:53:00
9:53 PM,68.0,42.1,39,29.90,10.0,NNE,4.6,-,N/A,,Mostly Cloudy,20,2013-08-21 03:53:00
10:53 PM,66.9,41.0,39,29.89,10.0,WSW,6.9,-,N/A,,Mostly Cloudy,240,2013-08-21 04:53:00
11:53 PM,64.9,42.1,43,29.88,10.0,WSW,5.8,-,N/A,,Mostly Cloudy,250,2013-08-21 05:53:00